Lacon, IL

11:18 AM CST on December 09, 2016 (GMT -0600)
Lacon

Weather History for KC75 - April, 2012

Change the Weather History Date:

Saturday, April 28, 2012

  Actual Average (KPIA) Record (KPIA)
Temperature  
Mean Temperature 46 °F -  
Max Temperature 50 °F 66 °F 91 °F (1894)
Min Temperature 42 °F 44 °F 30 °F (1928)
Degree Days  
Heating Degree Days 19    
Moisture  
Dew Point 41 °F    
Average Humidity 82    
Maximum Humidity 87    
Minimum Humidity 53    
Precipitation  
Precipitation 0.33 in - - ()
Sea Level Pressure  
Sea Level Pressure 30.02 in    
Wind  
Wind Speed 13 mph (ENE)    
Max Wind Speed 20 mph    
Max Gust Speed 28 mph    
Visibility 9 miles    
Events Rain , Thunderstorm    
Averages and records for this station are not official NWS values.
T = Trace of Precipitation, MM = Missing Value Source: NWS Daily Summary

Daily Weather History Graph

Daily Weather History Graph

Search for Another Location

Airport or City:

Trip Planner

Search our weather history database for the weather conditions in past years. The results will help you decide how hot, cold, wet, or windy it might be!

Date:

Astronomy

Apr. 28, 2012 Rise Set
Actual Time 5:58 AM CDT 7:51 PM CDT
Civil Twilight 5:29 AM CDT 8:21 PM CDT
Nautical Twilight 4:53 AM CDT 8:57 PM CDT
Astronomical Twilight 4:14 AM CDT 9:36 PM CDT
Moon 11:38 AM CDT (4/28) 1:16 AM CDT (4/28)
Length of Visible Light 14h 52m
Length of Day
13h 52m
Waxing Crescent, 43% of the Moon is Illuminated
Apr 28
Waxing Crescent
Apr 29
First Quarter
May 5
Full
May 12
Last Quarter
May 20
New

Hourly Weather History & Observations

Time (CDT) Temp. Windchill Dew Point Humidity Pressure Visibility Wind Dir Wind Speed Gust Speed Precip Events Conditions
12:14 AM 46.4 °F 41.1 °F 30.2 °F 53% 30.06 in 10.0 mi ENE 11.5 mph 17.3 mph N/A   Overcast
12:34 AM 44.6 °F 38.8 °F 35.6 °F 71% 30.05 in 7.0 mi NE 11.5 mph - 0.02 in Rain Light Rain
12:54 AM 44.6 °F 38.1 °F 35.6 °F 71% 30.03 in 10.0 mi NE 13.8 mph 18.4 mph 0.02 in   Overcast
1:14 AM 46.4 °F 40.4 °F 35.6 °F 66% 30.01 in 10.0 mi ENE 13.8 mph 20.7 mph N/A   Overcast
1:34 AM 46.4 °F 39.8 °F 35.6 °F 66% 30.00 in 10.0 mi ENE 16.1 mph 24.2 mph N/A   Overcast
1:55 AM 46.4 °F 39.8 °F 35.6 °F 66% 29.98 in 10.0 mi ENE 16.1 mph 25.3 mph N/A   Overcast
2:14 AM 46.4 °F 40.4 °F 33.8 °F 62% 29.98 in 10.0 mi ENE 13.8 mph 23.0 mph N/A   Overcast
2:34 AM 46.4 °F 39.8 °F 33.8 °F 62% 29.94 in 10.0 mi ENE 16.1 mph 25.3 mph N/A Rain Light Rain
2:54 AM 46.4 °F 39.5 °F 33.8 °F 62% 29.94 in 10.0 mi ENE 17.3 mph 26.5 mph N/A Rain Light Rain
3:14 AM 46.4 °F 39.8 °F 33.8 °F 62% 29.94 in 10.0 mi ENE 16.1 mph 26.5 mph N/A Rain , Thunderstorm Light Thunderstorms and Rain
3:34 AM 44.6 °F 38.8 °F 37.4 °F 76% 29.97 in 5.0 mi ENE 11.5 mph 23.0 mph 0.08 in Rain , Thunderstorm Heavy Thunderstorms and Rain
3:54 AM 44.6 °F 39.7 °F 37.4 °F 76% 29.98 in 4.0 mi ENE 9.2 mph - 0.22 in Rain , Thunderstorm Heavy Thunderstorms and Rain
4:14 AM 42.8 °F 36.6 °F 39.2 °F 87% 29.95 in 7.0 mi ENE 11.5 mph 20.7 mph 0.02 in Rain Light Rain
4:34 AM 42.8 °F 34.8 °F 39.2 °F 87% 29.94 in 5.0 mi ENE 17.3 mph 24.2 mph 0.08 in Rain , Thunderstorm Heavy Thunderstorms and Rain
4:54 AM 42.8 °F 35.1 °F 39.2 °F 87% 29.95 in 10.0 mi ENE 16.1 mph 23.0 mph 0.09 in Thunderstorm Thunderstorm
5:14 AM 42.8 °F 36.6 °F 39.2 °F 87% 29.95 in 10.0 mi ENE 11.5 mph 19.6 mph N/A   Overcast
5:34 AM 44.6 °F 38.1 °F 39.2 °F 81% 29.96 in 10.0 mi ENE 13.8 mph 19.6 mph N/A   Overcast
5:54 AM 44.6 °F 37.2 °F 39.2 °F 81% 29.95 in 10.0 mi ENE 17.3 mph 25.3 mph N/A Thunderstorm Overcast
6:14 AM 44.6 °F 37.8 °F 39.2 °F 81% 29.95 in 10.0 mi ENE 15.0 mph 23.0 mph N/A Thunderstorm Overcast
6:34 AM 44.6 °F 38.1 °F 39.2 °F 81% 29.96 in 10.0 mi ENE 13.8 mph 20.7 mph N/A   Overcast
6:54 AM 44.6 °F 38.4 °F 41.0 °F 87% 29.96 in 10.0 mi ENE 12.7 mph 25.3 mph N/A   Overcast
7:14 AM 44.6 °F 37.4 °F 41.0 °F 87% 29.96 in 10.0 mi East 16.1 mph 24.2 mph N/A   Overcast
7:34 AM 44.6 °F 37.2 °F 41.0 °F 87% 29.97 in 10.0 mi East 17.3 mph 25.3 mph N/A   Overcast
7:54 AM 44.6 °F 37.4 °F 41.0 °F 87% 29.98 in 10.0 mi ENE 16.1 mph 26.5 mph N/A   Overcast
8:14 AM 44.6 °F 37.2 °F 41.0 °F 87% 29.97 in 10.0 mi East 17.3 mph 27.6 mph N/A   Overcast
8:34 AM 44.6 °F 37.2 °F 41.0 °F 87% 29.98 in 10.0 mi East 17.3 mph 25.3 mph N/A   Overcast
8:54 AM 46.4 °F 39.2 °F 41.0 °F 81% 29.97 in 10.0 mi East 18.4 mph 27.6 mph N/A   Overcast
9:14 AM 46.4 °F 39.0 °F 41.0 °F 81% 29.97 in 10.0 mi East 19.6 mph 25.3 mph N/A   Overcast
9:34 AM 46.4 °F 40.4 °F 41.0 °F 81% 29.97 in 10.0 mi East 13.8 mph 26.5 mph N/A   Overcast
9:55 AM 46.4 °F 39.5 °F 42.8 °F 87% 29.98 in 10.0 mi East 17.3 mph 26.5 mph N/A   Overcast
10:14 AM 46.4 °F 39.5 °F 42.8 °F 87% 29.98 in 10.0 mi East 17.3 mph 25.3 mph N/A   Overcast
10:34 AM 46.4 °F 39.0 °F 42.8 °F 87% 29.98 in 10.0 mi East 19.6 mph 25.3 mph N/A   Overcast
10:54 AM 48.2 °F - 42.8 °F 82% 29.98 in 10.0 mi East 13.8 mph 25.3 mph N/A   Overcast
11:14 AM 48.2 °F - 42.8 °F 82% 30.00 in 10.0 mi East 12.7 mph 23.0 mph N/A   Overcast
11:34 AM 48.2 °F - 42.8 °F 82% 30.00 in 10.0 mi East 16.1 mph 23.0 mph N/A   Overcast
11:54 AM 48.2 °F - 42.8 °F 82% 30.00 in 10.0 mi ENE 15.0 mph 20.7 mph N/A   Overcast
12:14 PM 48.2 °F - 44.6 °F 87% 30.00 in 10.0 mi East 12.7 mph - N/A   Overcast
12:35 PM 48.2 °F - 42.8 °F 82% 29.99 in 10.0 mi ENE 13.8 mph - N/A   Overcast
12:54 PM 50.0 °F - 44.6 °F 82% 30.00 in 10.0 mi ENE 16.1 mph 23.0 mph N/A   Overcast
1:14 PM 48.2 °F - 44.6 °F 87% 30.00 in 10.0 mi NE 16.1 mph - N/A   Overcast
1:34 PM 50.0 °F - 44.6 °F 82% 29.99 in 10.0 mi ENE 13.8 mph 24.2 mph N/A   Overcast
1:54 PM 48.2 °F - 44.6 °F 87% 30.00 in 7.0 mi ENE 15.0 mph 24.2 mph N/A   Overcast
2:14 PM 48.2 °F - 44.6 °F 87% 30.01 in 10.0 mi ENE 12.7 mph 19.6 mph N/A   Overcast
2:34 PM 48.2 °F - 44.6 °F 87% 30.04 in 7.0 mi ENE 12.7 mph 19.6 mph N/A   Overcast
2:54 PM 48.2 °F - 44.6 °F 87% 30.05 in 7.0 mi ENE 10.4 mph - N/A   Overcast
3:14 PM 48.2 °F - 42.8 °F 82% 30.05 in 10.0 mi ENE 11.5 mph 18.4 mph N/A   Overcast
3:34 PM 48.2 °F - 44.6 °F 87% 30.04 in 7.0 mi ENE 16.1 mph 20.7 mph N/A   Overcast
3:54 PM 48.2 °F - 44.6 °F 87% 30.02 in 7.0 mi NE 17.3 mph 24.2 mph N/A   Overcast
4:14 PM 48.2 °F - 44.6 °F 87% 30.03 in 5.0 mi ENE 13.8 mph 21.9 mph N/A   Overcast
4:34 PM 48.2 °F - 44.6 °F 87% 30.07 in 5.0 mi ENE 8.1 mph 20.7 mph N/A   Overcast
4:54 PM 48.2 °F - 44.6 °F 87% 30.08 in 5.0 mi ENE 10.4 mph 19.6 mph N/A   Overcast
5:14 PM 48.2 °F - 44.6 °F 87% 30.06 in 5.0 mi NE 16.1 mph - N/A   Overcast
5:34 PM 48.2 °F - 44.6 °F 87% 30.05 in 5.0 mi NE 15.0 mph 20.7 mph N/A   Overcast
5:54 PM 48.2 °F - 44.6 °F 87% 30.06 in 7.0 mi NE 15.0 mph 19.6 mph N/A   Overcast
6:14 PM 48.2 °F - 44.6 °F 87% 30.06 in 7.0 mi ENE 13.8 mph 23.0 mph N/A   Overcast
6:34 PM 48.2 °F - 42.8 °F 82% 30.07 in 10.0 mi ENE 16.1 mph 21.9 mph N/A   Overcast
6:54 PM 48.2 °F - 42.8 °F 82% 30.08 in 10.0 mi ENE 13.8 mph - N/A   Overcast
7:14 PM 48.2 °F - 42.8 °F 82% 30.08 in 7.0 mi ENE 9.2 mph 17.3 mph N/A   Overcast
7:34 PM 48.2 °F - 42.8 °F 82% 30.07 in 10.0 mi ENE 13.8 mph 17.3 mph N/A   Mostly Cloudy
7:54 PM 48.2 °F - 42.8 °F 82% 30.09 in 10.0 mi ENE 5.8 mph - N/A   Scattered Clouds
8:14 PM 46.4 °F 42.4 °F 42.8 °F 87% 30.08 in 10.0 mi NE 8.1 mph - N/A   Mostly Cloudy
8:34 PM 46.4 °F 44.3 °F 42.8 °F 87% 30.10 in 10.0 mi ENE 4.6 mph - N/A   Scattered Clouds
8:54 PM 46.4 °F 43.5 °F 42.8 °F 87% 30.11 in 10.0 mi NE 5.8 mph - N/A   Clear
9:14 PM 46.4 °F 42.9 °F 41.0 °F 81% 30.11 in 10.0 mi NE 6.9 mph - N/A   Scattered Clouds
9:34 PM 46.4 °F 41.9 °F 41.0 °F 81% 30.11 in 10.0 mi NE 9.2 mph - N/A   Scattered Clouds
9:54 PM 46.4 °F 43.5 °F 41.0 °F 81% 30.13 in 10.0 mi NE 5.8 mph - N/A   Scattered Clouds
10:14 PM 46.4 °F 43.5 °F 41.0 °F 81% 30.14 in 10.0 mi NE 5.8 mph - N/A   Scattered Clouds
10:34 PM 44.6 °F 41.4 °F 41.0 °F 87% 30.15 in 10.0 mi NE 5.8 mph - N/A   Scattered Clouds
10:54 PM 44.6 °F 41.4 °F 41.0 °F 87% 30.15 in 10.0 mi NE 5.8 mph - N/A   Mostly Cloudy
11:14 PM 44.6 °F 40.7 °F 39.2 °F 81% 30.14 in 10.0 mi ENE 6.9 mph - N/A   Mostly Cloudy
11:34 PM 44.6 °F 42.2 °F 39.2 °F 81% 30.15 in 10.0 mi NE 4.6 mph - N/A   Overcast
11:54 PM 44.6 °F - 41.0 °F 87% 30.18 in 7.0 mi Calm Calm - N/A   Overcast